Location: Killam
(52.7910°N, 111.8608°W)
Time: 22:02:02
(UTC+00:00)

A-11 Canister half - Pass Details

Date: 24 February 2026
Orbit: 1525 x 1683 km, 47.3° (Epoch: 9 March)

Event Time Altitude Azimuth Distance (km) Brightness Sun altitude
Rises 05:21:02 0° 285° (WNW) 4,680 12.3 -38.3°
Reaches altitude 10° 05:25:01 10° 271° (W) 3,694 11.4 -38.7°
Enters shadow 05:31:11 21° 228° (SW) 2,930 10.4 -39.4°
Maximum altitude 05:31:20 21° 227° (SW) 2,930 - -39.4°
Drops below altitude 10° 05:37:42 10° 183° (S) 3,717 - -40.0°
Sets 05:41:45 0° 168° (SSE) 4,719 - -40.4°
